Townsville, Australia

9:34 AM AEST on February 26, 2017 (GMT +1000)
Townsville

Weather History for 94294 - October, 2013

Change the Weather History Date:

Thursday, October 10, 2013

  Actual Average Record
Temperature  
Mean Temperature 79 °F -  
Max Temperature 86 °F 86 °F - ()
Min Temperature 72 °F 71 °F - ()
Cooling Degree Days 14    
Growing Degree Days 29 (Base 50)    
Moisture  
Dew Point 60 °F    
Average Humidity 53    
Maximum Humidity 78    
Minimum Humidity 29    
Precipitation  
Precipitation 0.00 in 0.05 in - ()
Sea Level Pressure  
Sea Level Pressure 30.03 in    
Wind  
Wind Speed 14 mph ()    
Max Wind Speed 21 mph    
Max Gust Speed -    
Visibility 7.3 miles    
Events      
T = Trace of Precipitation, MM = Missing Value Source: Averaged Metar Reports

Daily Weather History Graph

Daily Weather History Graph

Search for Another Location

Airport or City:

Trip Planner

Search our weather history database for the weather conditions in past years. The results will help you decide how hot, cold, wet, or windy it might be!

Date:

Astronomy

Oct. 10, 2013 Rise Set
Actual Time 5:47 AM AEST 6:12 PM AEST
Civil Twilight 5:25 AM AEST 6:35 PM AEST
Nautical Twilight 4:59 AM AEST 7:00 PM AEST
Astronomical Twilight 4:33 AM AEST 7:27 PM AEST
Moon 9:51 AM AEST (10/10) 11:18 PM AEST (10/10)
Length of Visible Light 13h 09m
Length of Day
12h 25m
Waxing Crescent, 29% of the Moon is Illuminated
Oct 10
Waxing Crescent
Oct 12
First Quarter
Oct 19
Full
Oct 27
Last Quarter
Nov 3
New

Hourly Weather History & Observations

Time (AEST) Temp. Heat Index Dew Point Humidity Pressure Visibility Wind Dir Wind Speed Gust Speed Precip Events Conditions
12:00 AM 76 °F - 67 °F 65% 30.06 in - East 17.3 mph - -  
12:00 AM 77.0 °F - 66.2 °F 69% 30.04 in 6.2 mi East 17.3 mph - N/A   Unknown
12:30 AM 77.0 °F - 66.2 °F 69% 30.04 in 6.2 mi East 17.3 mph - N/A   Scattered Clouds
1:00 AM 76 °F - 66 °F 63% 30.06 in - East 19.6 mph - -  
1:00 AM 77.0 °F - 66.2 °F 69% 30.04 in 6.2 mi East 19.6 mph - N/A   Scattered Clouds
1:30 AM 75.2 °F - 66.2 °F 73% 30.04 in 6.2 mi East 16.1 mph - N/A   Unknown
2:00 AM 75.2 °F - 66.2 °F 73% 30.04 in 6.2 mi East 13.8 mph - N/A   Unknown
2:30 AM 75.2 °F - 64.4 °F 69% 30.01 in 6.2 mi East 12.7 mph - N/A   Unknown
3:00 AM 76 °F - 65 °F 61% 30.02 in - East 13.8 mph - -  
3:00 AM 75.2 °F - 64.4 °F 69% 30.01 in 6.2 mi East 13.8 mph - N/A   Scattered Clouds
3:30 AM 75.2 °F - 66.2 °F 73% 30.01 in 6.2 mi ESE 12.7 mph - N/A   Scattered Clouds
4:00 AM 75 °F - 65 °F 64% 30.04 in - ESE 11.5 mph - -  
4:00 AM 75.2 °F - 64.4 °F 69% 30.01 in 6.2 mi ESE 11.5 mph - N/A   Scattered Clouds
4:30 AM 73.4 °F - 66.2 °F 78% 30.04 in 6.2 mi ESE 10.4 mph - N/A   Scattered Clouds
5:00 AM 73.4 °F - 64.4 °F 73% 30.04 in 6.2 mi ESE 10.4 mph - N/A   Unknown
5:30 AM 73.4 °F - 64.4 °F 73% 30.04 in 6.2 mi SE 8.1 mph - N/A   Scattered Clouds
6:00 AM 74 °F - 65 °F 67% 30.05 in - SE 10.4 mph - -  
6:00 AM 73.4 °F - 64.4 °F 73% 30.04 in 6.2 mi SE 10.4 mph - N/A   Scattered Clouds
6:30 AM 75.2 °F - 64.4 °F 69% 30.06 in 6.2 mi ESE 9.2 mph - N/A   Partly Cloudy
7:00 AM 77 °F - 64 °F 55% 30.09 in - ESE 12.7 mph - -  
7:00 AM 77.0 °F - 64.4 °F 65% 30.06 in 6.2 mi ESE 12.7 mph - N/A   Partly Cloudy
7:30 AM 78.8 °F - 62.6 °F 57% 30.09 in 6.2 mi ESE 15.0 mph - N/A   Partly Cloudy
8:00 AM 78.8 °F - 62.6 °F 57% 30.09 in 6.2 mi ESE 15.0 mph - N/A   Partly Cloudy
8:30 AM 80.6 °F 81.5 °F 60.8 °F 51% 30.09 in 6.2 mi ESE 13.8 mph - N/A   Partly Cloudy
9:00 AM 81 °F - 59 °F 36% 30.11 in 12 mi ENE 15.0 mph - -   Haze
9:00 AM 80.6 °F 81.1 °F 59.0 °F 48% 30.09 in 6.2 mi ENE 15.0 mph - N/A   Partly Cloudy
9:30 AM 82.4 °F 82.0 °F 57.2 °F 42% 30.09 in 6.2 mi East 15.0 mph - N/A   Partly Cloudy
10:00 AM 83 °F - 56 °F 29% 30.12 in - East 15.0 mph - -  
10:00 AM 84.2 °F 83.0 °F 55.4 °F 37% 30.09 in 6.2 mi East 15.0 mph - N/A   Partly Cloudy
10:30 AM 84.2 °F 82.8 °F 53.6 °F 35% 30.09 in 6.2 mi East 17.3 mph - N/A   Partly Cloudy
11:00 AM 84.2 °F 82.8 °F 53.6 °F 35% 30.06 in 6.2 mi East 16.1 mph - N/A   Partly Cloudy
11:30 AM 86.0 °F 85.4 °F 59.0 °F 40% 30.06 in 6.2 mi ENE 19.6 mph - N/A   Partly Cloudy
12:00 PM 83 °F - 60 °F 36% 30.06 in 16 mi ENE 19.6 mph - -   Haze
12:00 PM 84.2 °F 84.4 °F 60.8 °F 45% 30.06 in 6.2 mi ENE 19.6 mph - N/A   Partly Cloudy
12:30 PM 84.2 °F 83.5 °F 57.2 °F 40% 30.04 in 6.2 mi ENE 19.6 mph - N/A   Partly Cloudy
1:00 PM 83 °F - 56 °F 30% 30.04 in - ENE 18.4 mph - -  
1:00 PM 82.4 °F 82.0 °F 57.2 °F 42% 30.01 in 6.2 mi ENE 18.4 mph - N/A   Partly Cloudy
1:30 PM 82.4 °F 81.7 °F 55.4 °F 39% 30.01 in 6.2 mi ENE 19.6 mph - N/A   Partly Cloudy
2:00 PM 84.2 °F 82.8 °F 53.6 °F 35% 29.98 in 6.2 mi ENE 18.4 mph - N/A   Partly Cloudy
2:30 PM 82.4 °F 81.4 °F 53.6 °F 37% 29.98 in - ENE 19.6 mph - N/A   Clear
3:00 PM 82 °F - 55 °F 29% 29.98 in 16 mi ENE 20.7 mph - -   Haze
3:00 PM 82.4 °F 81.7 °F 55.4 °F 39% 29.98 in - ENE 20.7 mph - N/A   Clear
3:30 PM 82.4 °F 82.0 °F 57.2 °F 42% 29.98 in - ENE 19.6 mph - N/A   Clear
4:00 PM 81 °F - 55 °F 30% 29.99 in - ENE 18.4 mph - -  
4:00 PM 80.6 °F 80.5 °F 55.4 °F 42% 29.98 in - ENE 18.4 mph - N/A   Clear
4:30 PM 80.6 °F 80.8 °F 57.2 °F 45% 29.98 in - ENE 16.1 mph - N/A   Clear
5:00 PM 78.8 °F - 57.2 °F 47% 29.98 in - ENE 17.3 mph - N/A   Clear
5:30 PM 77.0 °F - 59.0 °F 54% 29.98 in - ENE 15.0 mph - N/A   Clear
6:00 PM 76 °F - 57 °F 42% 29.98 in 16 mi ENE 13.8 mph - -   Haze
6:00 PM 77.0 °F - 57.2 °F 50% 29.98 in - ENE 13.8 mph - N/A   Clear
6:30 PM 75.2 °F - 57.2 °F 53% 29.98 in - ENE 10.4 mph - N/A   Clear
7:00 PM 75 °F - 58 °F 44% 30.01 in - East 10.4 mph - -  
7:00 PM 75.2 °F - 57.2 °F 53% 29.98 in - East 10.4 mph - N/A   Clear
7:30 PM 75.2 °F - 57.2 °F 53% 30.01 in - ENE 9.2 mph - N/A   Clear
8:00 PM 75.2 °F - 59.0 °F 57% 30.01 in 6.2 mi ENE 11.5 mph - N/A   Partly Cloudy
8:30 PM 75.2 °F - 59.0 °F 57% 30.01 in 6.2 mi ENE 9.2 mph - N/A   Partly Cloudy
9:00 PM 75 °F - 60 °F 49% 30.03 in 16 mi ENE 10.4 mph - -   Haze
9:00 PM 75.2 °F - 59.0 °F 57% 30.01 in 6.2 mi ENE 10.4 mph - N/A   Partly Cloudy
9:30 PM 75.2 °F - 59.0 °F 57% 30.04 in 6.2 mi ENE 9.2 mph - N/A   Partly Cloudy
10:00 PM 75 °F - 60 °F 50% 30.05 in - ENE 8.1 mph - -  
10:00 PM 75.2 °F - 60.8 °F 61% 30.04 in 6.2 mi ENE 8.1 mph - N/A   Partly Cloudy
10:30 PM 75.2 °F - 59.0 °F 57% 30.04 in 6.2 mi NE 9.2 mph - N/A   Partly Cloudy
11:00 PM 73.4 °F - 60.8 °F 65% 30.04 in 6.2 mi NE 9.2 mph - N/A   Scattered Clouds
11:30 PM 73.4 °F - 60.8 °F 65% 30.01 in 6.2 mi NNE 8.1 mph - N/A   Unknown